"read_dt","SO2 (ppb)","flags","PMT voltage (V)","lamp voltage (V)","lamp intensity (Hz)","internal temp (C)","react chamber temp (C)","sample flow (l/min)","pres (mmHg)","SO2 bkg (ppb)","SO2 coefficient"
2016-01-11 00:00:00,1913E-3,5C000400,-0724,0834,12161,029.1,045.4,0.254,763.8,01.16,0.508
2016-01-11 00:01:00,1878E-3,5C000400,-0724,0833,12203,029.1,045.5,0.254,763.8,01.16,0.508
2016-01-11 00:02:00,1888E-3,5C000400,-0724,0833,12222,029.1,045.5,0.254,763.7,01.16,0.508
2016-01-11 00:03:00,1724E-3,5C000400,-0724,0833,11916,029.1,045.5,0.254,763.8,01.16,0.508
2016-01-11 00:04:00,1927E-3,5C000400,-0724,0834,12238,029.1,045.5,0.254,763.7,01.16,0.508
2016-01-11 00:05:00,1896E-3,5C000400,-0724,0835,12198,029.1,045.5,0.254,763.7,01.16,0.508
2016-01-11 00:06:00,1865E-3,5C000400,-0724,0834,12156,029.1,045.5,0.254,763.8,01.16,0.508
2016-01-11 00:07:00,1907E-3,5C000400,-0724,0833,12206,029.1,045.5,0.254,763.7,01.16,0.508
2016-01-11 00:08:00,1910E-3,5C000400,-0724,0834,12142,029.1,045.5,0.254,763.7,01.16,0.508
2016-01-11 00:09:00,1755E-3,5C000400,-0724,0834,12130,029.1,045.4,0.254,763.7,01.16,0.508
2016-01-11 00:10:00,1943E-3,5C000400,-0724,0834,12114,029.1,045.4,0.254,763.6,01.16,0.508
2016-01-11 00:11:00,1928E-3,5C000400,-0724,0834,12118,029.1,045.5,0.254,763.6,01.16,0.508
2016-01-11 00:12:00,1697E-3,5C000400,-0724,0834,12066,029.1,045.5,0.254,763.6,01.16,0.508
2016-01-11 00:13:00,1726E-3,5C000400,-0724,0835,12111,029.2,045.4,0.254,763.6,01.16,0.508
2016-01-11 00:14:00,1767E-3,5C000400,-0724,0834,12115,029.1,045.5,0.254,763.5,01.16,0.508
2016-01-11 00:15:00,1696E-3,5C000400,-0724,0834,12157,029.1,045.4,0.254,763.6,01.16,0.508
2016-01-11 00:16:00,1954E-3,5C000400,-0724,0834,12131,029.1,045.4,0.254,763.5,01.16,0.508
2016-01-11 00:17:00,1675E-3,5C000400,-0724,0834,12075,029.1,045.5,0.254,763.5,01.16,0.508
2016-01-11 00:18:00,1819E-3,5C000400,-0724,0834,12023,029.1,045.5,0.254,763.5,01.16,0.508
2016-01-11 00:19:00,1778E-3,5C000400,-0724,0835,12125,029.1,045.4,0.254,763.5,01.16,0.508
2016-01-11 00:20:00,1790E-3,5C000400,-0724,0834,12197,029.1,045.5,0.254,763.6,01.16,0.508
2016-01-11 00:21:00,1899E-3,5C000400,-0724,0833,12206,029.1,045.5,0.254,763.6,01.16,0.508
2016-01-11 00:22:00,1829E-3,5C000400,-0724,0833,12115,029.2,045.5,0.254,763.6,01.16,0.508
2016-01-11 00:23:00,1898E-3,5C000400,-0724,0834,12204,029.2,045.4,0.254,763.6,01.16,0.508
2016-01-11 00:24:00,1688E-3,5C000400,-0724,0834,12163,029.2,045.5,0.254,763.6,01.16,0.508
2016-01-11 00:25:00,1794E-3,5C000400,-0724,0834,12090,029.2,045.5,0.253,763.5,01.16,0.508
2016-01-11 00:26:00,1876E-3,5C000400,-0724,0833,12075,029.2,045.5,0.254,763.5,01.16,0.508
2016-01-11 00:27:00,1826E-3,5C000400,-0724,0833,12182,029.2,045.5,0.254,763.5,01.16,0.508
2016-01-11 00:28:00,1840E-3,5C000400,-0724,0834,12195,029.2,045.5,0.254,763.5,01.16,0.508
2016-01-11 00:29:00,1851E-3,5C000400,-0724,0834,12008,029.1,045.4,0.254,763.5,01.16,0.508
2016-01-11 00:30:00,1770E-3,5C000400,-0724,0834,12068,029.2,045.5,0.254,763.5,01.16,0.508
2016-01-11 00:31:00,1720E-3,5C000400,-0724,0834,12088,029.1,045.5,0.254,763.5,01.16,0.508
2016-01-11 00:32:00,1906E-3,5C000400,-0724,0834,12259,029.2,045.5,0.254,763.5,01.16,0.508
2016-01-11 00:33:00,1876E-3,5C000400,-0724,0833,12121,029.2,045.5,0.254,763.4,01.16,0.508
2016-01-11 00:34:00,1905E-3,5C000400,-0724,0833,12092,029.2,045.5,0.253,763.4,01.16,0.508
2016-01-11 00:35:00,1743E-3,5C000400,-0724,0834,12180,029.2,045.4,0.254,763.4,01.16,0.508
2016-01-11 00:36:00,1790E-3,5C000400,-0724,0834,12037,029.2,045.5,0.253,763.3,01.16,0.508
2016-01-11 00:37:00,1786E-3,5C000400,-0724,0834,12194,029.2,045.4,0.254,763.4,01.16,0.508
2016-01-11 00:38:00,1871E-3,5C000400,-0724,0834,12226,029.2,045.4,0.254,763.4,01.16,0.508
2016-01-11 00:39:00,1909E-3,5C000400,-0724,0834,12183,029.2,045.5,0.254,763.4,01.16,0.508
2016-01-11 00:40:00,1762E-3,5C000400,-0724,0834,12115,029.2,045.5,0.254,763.4,01.16,0.508
2016-01-11 00:41:00,1817E-3,5C000400,-0724,0834,12150,029.2,045.5,0.254,763.4,01.16,0.508
2016-01-11 00:42:00,1864E-3,5C000400,-0724,0834,12268,029.2,045.4,0.254,763.4,01.16,0.508
2016-01-11 00:43:00,1863E-3,5C000400,-0724,0834,12210,029.2,045.5,0.253,763.4,01.16,0.508
2016-01-11 00:44:00,1759E-3,5C000400,-0724,0833,12151,029.2,045.5,0.254,763.4,01.16,0.508
2016-01-11 00:45:00,1905E-3,5C000400,-0724,0833,11929,029.2,045.4,0.254,763.4,01.16,0.508
2016-01-11 00:46:00,1905E-3,5C000400,-0724,0834,12129,029.2,045.5,0.254,763.4,01.16,0.508
2016-01-11 00:47:00,1722E-3,5C000400,-0724,0834,12135,029.2,045.5,0.254,763.4,01.16,0.508
2016-01-11 00:48:00,1830E-3,5C000400,-0724,0834,12245,029.2,045.4,0.254,763.4,01.16,0.508
2016-01-11 00:49:00,1866E-3,5C000400,-0724,0834,12123,029.2,045.4,0.254,763.4,01.16,0.508
2016-01-11 00:50:00,1830E-3,5C000400,-0724,0833,12065,029.2,045.4,0.253,763.3,01.16,0.508
2016-01-11 00:51:00,1710E-3,5C000400,-0724,0834,12156,029.2,045.5,0.254,763.3,01.16,0.508
2016-01-11 00:52:00,1812E-3,5C000400,-0724,0834,12139,029.3,045.5,0.254,763.3,01.16,0.508
2016-01-11 00:53:00,1881E-3,5C000400,-0724,0834,12179,029.2,045.5,0.254,763.3,01.16,0.508
2016-01-11 00:54:00,1826E-3,5C000400,-0724,0834,12173,029.3,045.4,0.254,763.3,01.16,0.508
2016-01-11 00:55:00,1874E-3,5C000400,-0724,0834,12099,029.3,045.5,0.254,763.3,01.16,0.508
2016-01-11 00:56:00,1744E-3,5C000400,-0724,0834,12296,029.3,045.5,0.254,763.3,01.16,0.508
2016-01-11 00:57:00,1861E-3,5C000400,-0724,0834,12244,029.2,045.5,0.253,763.3,01.16,0.508
2016-01-11 00:58:00,1783E-3,5C000400,-0724,0833,12077,029.3,045.5,0.254,763.3,01.16,0.508
2016-01-11 00:59:00,1884E-3,5C000400,-0724,0834,12202,029.3,045.4,0.254,763.3,01.16,0.508
2016-01-11 01:00:00,1777E-3,5C000400,-0724,0834,12196,029.2,045.5,0.254,763.3,01.16,0.508
2016-01-11 01:01:00,1726E-3,5C000400,-0724,0834,12124,029.3,045.5,0.254,763.3,01.16,0.508
2016-01-11 01:02:00,1751E-3,5C000400,-0724,0834,12100,029.3,045.5,0.254,763.3,01.16,0.508
2016-01-11 01:03:00,1847E-3,5C000400,-0724,0834,12168,029.3,045.4,0.254,763.3,01.16,0.508
2016-01-11 01:04:00,1921E-3,5C000400,-0724,0834,12089,029.3,045.4,0.253,763.2,01.16,0.508
2016-01-11 01:05:00,1947E-3,5C000400,-0724,0833,12102,029.3,045.4,0.254,763.2,01.16,0.508
2016-01-11 01:06:00,1853E-3,5C000400,-0724,0834,12191,029.3,045.4,0.254,763.3,01.16,0.508
2016-01-11 01:07:00,1748E-3,5C000400,-0724,0834,12181,029.3,045.5,0.254,763.3,01.16,0.508
2016-01-11 01:08:00,1754E-3,5C000400,-0724,0834,12064,029.3,045.4,0.254,763.3,01.16,0.508
2016-01-11 01:09:00,1926E-3,5C000400,-0724,0834,12055,029.3,045.5,0.254,763.2,01.16,0.508
2016-01-11 01:10:00,1826E-3,5C000400,-0724,0834,12227,029.3,045.4,0.254,763.2,01.16,0.508
2016-01-11 01:11:00,1769E-3,5C000400,-0724,0834,12256,029.3,045.5,0.253,763.2,01.16,0.508
2016-01-11 01:12:00,1829E-3,5C000400,-0724,0834,12170,029.3,045.5,0.254,763.2,01.16,0.508
2016-01-11 01:13:00,1790E-3,5C000400,-0724,0833,12137,029.3,045.4,0.253,763.2,01.16,0.508
2016-01-11 01:14:00,1822E-3,5C000400,-0724,0834,12025,029.3,045.5,0.254,763.1,01.16,0.508
2016-01-11 01:15:00,1856E-3,5C000400,-0724,0834,12206,029.3,045.5,0.254,763.1,01.16,0.508
2016-01-11 01:16:00,1938E-3,5C000400,-0724,0834,12104,029.3,045.5,0.253,763.1,01.16,0.508
2016-01-11 01:17:00,1885E-3,5C000400,-0724,0834,12245,029.3,045.4,0.254,763.0,01.16,0.508
2016-01-11 01:18:00,1822E-3,5C000400,-0724,0833,12119,029.3,045.5,0.254,763.0,01.16,0.508
2016-01-11 01:19:00,1887E-3,5C000400,-0724,0833,11928,029.3,045.4,0.254,763.1,01.16,0.508
2016-01-11 01:20:00,1809E-3,5C000400,-0724,0834,12276,029.3,045.5,0.254,763.1,01.16,0.508
2016-01-11 01:21:00,1782E-3,5C000400,-0724,0834,12154,029.3,045.5,0.253,763.1,01.16,0.508
2016-01-11 01:22:00,1856E-3,5C000400,-0724,0834,12345,029.3,045.5,0.254,763.1,01.16,0.508
2016-01-11 01:23:00,1927E-3,5C000400,-0724,0834,12248,029.3,045.5,0.253,763.1,01.16,0.508
2016-01-11 01:24:00,1866E-3,5C000400,-0724,0834,12111,029.3,045.5,0.254,763.0,01.16,0.508
2016-01-11 01:25:00,1711E-3,5C000400,-0724,0834,12131,029.3,045.5,0.253,763.1,01.16,0.508
2016-01-11 01:26:00,1828E-3,5C000400,-0724,0834,12043,029.3,045.5,0.254,763.0,01.16,0.508
2016-01-11 01:27:00,1752E-3,5C000400,-0724,0834,12168,029.3,045.5,0.254,763.0,01.16,0.508
2016-01-11 01:28:00,1808E-3,5C000400,-0724,0834,12317,029.4,045.5,0.253,763.0,01.16,0.508
2016-01-11 01:29:00,1899E-3,5C000400,-0724,0833,12186,029.4,045.5,0.254,763.0,01.16,0.508
2016-01-11 01:30:00,1737E-3,5C000400,-0724,0834,12186,029.3,045.5,0.253,763.0,01.16,0.508
2016-01-11 01:31:00,1857E-3,5C000400,-0724,0833,12004,029.3,045.5,0.254,762.9,01.16,0.508
2016-01-11 01:32:00,1819E-3,5C000400,-0724,0833,12222,029.3,045.5,0.254,762.9,01.16,0.508
2016-01-11 01:33:00,1854E-3,5C000400,-0724,0834,12159,029.3,045.5,0.253,762.9,01.16,0.508
2016-01-11 01:34:00,1750E-3,5C000400,-0724,0834,12115,029.3,045.5,0.254,762.9,01.16,0.508
2016-01-11 01:35:00,1948E-3,5C000400,-0724,0834,12150,029.3,045.4,0.253,762.9,01.16,0.508
2016-01-11 01:36:00,1857E-3,5C000400,-0724,0833,12182,029.3,045.4,0.254,762.9,01.16,0.508
2016-01-11 01:37:00,1737E-3,5C000400,-0724,0833,12250,029.4,045.5,0.253,762.8,01.16,0.508
2016-01-11 01:38:00,1738E-3,5C000400,-0724,0834,12032,029.3,045.5,0.254,762.9,01.16,0.508
2016-01-11 01:39:00,1813E-3,5C000400,-0724,0833,12106,029.4,045.5,0.253,762.8,01.16,0.508
2016-01-11 01:40:00,1967E-3,5C000400,-0724,0834,12270,029.3,045.4,0.253,762.8,01.16,0.508
2016-01-11 01:41:00,2052E-3,5C000400,-0724,0834,12279,029.3,045.5,0.254,762.8,01.16,0.508
2016-01-11 01:42:00,1923E-3,5C000400,-0724,0834,12105,029.4,045.5,0.253,762.8,01.16,0.508
2016-01-11 01:43:00,1919E-3,5C000400,-0724,0833,12286,029.4,045.5,0.254,762.8,01.16,0.508
2016-01-11 01:44:00,1954E-3,5C000400,-0724,0834,12074,029.4,045.5,0.253,762.8,01.16,0.508
2016-01-11 01:45:00,1854E-3,5C000400,-0724,0834,12043,029.4,045.5,0.254,762.8,01.16,0.508
2016-01-11 01:46:00,1856E-3,5C000400,-0724,0834,12168,029.4,045.4,0.253,762.7,01.16,0.508
2016-01-11 01:47:00,1879E-3,5C000400,-0724,0834,12204,029.4,045.4,0.254,762.7,01.16,0.508
2016-01-11 01:48:00,1813E-3,5C000400,-0724,0834,12192,029.4,045.5,0.254,762.7,01.16,0.508
2016-01-11 01:49:00,1931E-3,5C000400,-0724,0834,12031,029.4,045.5,0.253,762.7,01.16,0.508
2016-01-11 01:50:00,1766E-3,5C000400,-0724,0834,12016,029.4,045.5,0.253,762.7,01.16,0.508
2016-01-11 01:51:00,1788E-3,5C000400,-0724,0833,12095,029.4,045.4,0.254,762.7,01.16,0.508
2016-01-11 01:52:00,1723E-3,5C000400,-0724,0834,12186,029.4,045.5,0.253,762.7,01.16,0.508
2016-01-11 01:53:00,1785E-3,5C000400,-0724,0833,12204,029.4,045.5,0.253,762.7,01.16,0.508
2016-01-11 01:54:00,1754E-3,5C000400,-0724,0834,12084,029.4,045.4,0.253,762.7,01.16,0.508
2016-01-11 01:55:00,1706E-3,5C000400,-0724,0834,12206,029.4,045.4,0.253,762.7,01.16,0.508
2016-01-11 01:56:00,1829E-3,5C000400,-0724,0834,12122,029.4,045.5,0.254,762.7,01.16,0.508
2016-01-11 01:57:00,1788E-3,5C000400,-0724,0834,12141,029.4,045.5,0.253,762.7,01.16,0.508
2016-01-11 01:58:00,1792E-3,5C000400,-0724,0833,12114,029.4,045.5,0.253,762.7,01.16,0.508
2016-01-11 01:59:00,1807E-3,5C000400,-0724,0834,11993,029.4,045.5,0.253,762.7,01.16,0.508
2016-01-11 02:00:00,1845E-3,5C000400,-0724,0834,12146,029.4,045.5,0.253,762.7,01.16,0.508
2016-01-11 02:01:00,1904E-3,5C000400,-0724,0834,12118,029.4,045.5,0.253,762.7,01.16,0.508
2016-01-11 02:02:00,1787E-3,5C000400,-0724,0833,12263,029.4,045.5,0.253,762.7,01.16,0.508
2016-01-11 02:03:00,1857E-3,5C000400,-0724,0835,12336,029.4,045.5,0.253,762.7,01.16,0.508
2016-01-11 02:04:00,1839E-3,5C000400,-0724,0834,12253,029.5,045.5,0.253,762.7,01.16,0.508
2016-01-11 02:05:00,1888E-3,5C000400,-0724,0834,12263,029.4,045.5,0.254,762.7,01.16,0.508
2016-01-11 02:06:00,1813E-3,5C000400,-0724,0834,12166,029.5,045.5,0.253,762.6,01.16,0.508
2016-01-11 02:07:00,1910E-3,5C000400,-0724,0834,12013,029.5,045.5,0.254,762.7,01.16,0.508
2016-01-11 02:08:00,1794E-3,5C000400,-0724,0834,12095,029.5,045.5,0.253,762.7,01.16,0.508
2016-01-11 02:09:00,1774E-3,5C000400,-0724,0833,12186,029.4,045.5,0.253,762.6,01.16,0.508
2016-01-11 02:10:00,1844E-3,5C000400,-0724,0833,12250,029.4,045.5,0.253,762.6,01.16,0.508
2016-01-11 02:11:00,1748E-3,5C000400,-0724,0834,12105,029.4,045.5,0.253,762.6,01.16,0.508
2016-01-11 02:12:00,1732E-3,5C000400,-0724,0834,11971,029.5,045.5,0.253,762.6,01.16,0.508
2016-01-11 02:13:00,1877E-3,5C000400,-0724,0834,12166,029.5,045.4,0.253,762.6,01.16,0.508
2016-01-11 02:14:00,2041E-3,5C000400,-0724,0833,12032,029.4,045.5,0.254,762.5,01.16,0.508
2016-01-11 02:15:00,1876E-3,5C000400,-0724,0834,12165,029.5,045.5,0.253,762.5,01.16,0.508
2016-01-11 02:16:00,1868E-3,5C000400,-0724,0834,12171,029.5,045.5,0.254,762.5,01.16,0.508
2016-01-11 02:17:00,1888E-3,5C000400,-0724,0834,12163,029.5,045.5,0.253,762.5,01.16,0.508
2016-01-11 02:18:00,1887E-3,5C000400,-0724,0833,12134,029.5,045.4,0.253,762.5,01.16,0.508
2016-01-11 02:19:00,1955E-3,5C000400,-0724,0834,12206,029.5,045.5,0.254,762.5,01.16,0.508
2016-01-11 02:20:00,1879E-3,5C000400,-0724,0834,12307,029.5,045.5,0.253,762.4,01.16,0.508
2016-01-11 02:21:00,1954E-3,5C000400,-0724,0835,12097,029.5,045.5,0.254,762.4,01.16,0.508
2016-01-11 02:22:00,1843E-3,5C000400,-0724,0834,12071,029.5,045.5,0.253,762.4,01.16,0.508
2016-01-11 02:23:00,1899E-3,5C000400,-0724,0833,12149,029.5,045.5,0.253,762.4,01.16,0.508
2016-01-11 02:24:00,1740E-3,5C000400,-0724,0834,12189,029.5,045.5,0.253,762.4,01.16,0.508
2016-01-11 02:25:00,2026E-3,5C000400,-0724,0834,12161,029.5,045.5,0.253,762.3,01.16,0.508
2016-01-11 02:26:00,1982E-3,5C000400,-0724,0834,12179,029.5,045.5,0.254,762.3,01.16,0.508
2016-01-11 02:27:00,1891E-3,5C000400,-0724,0833,12148,029.5,045.5,0.253,762.3,01.16,0.508
2016-01-11 02:28:00,2016E-3,5C000400,-0724,0833,12209,029.5,045.5,0.253,762.3,01.16,0.508
2016-01-11 02:29:00,1868E-3,5C000400,-0724,0835,12194,029.5,045.4,0.253,762.3,01.16,0.508
2016-01-11 02:30:00,2018E-3,5C000400,-0724,0834,12152,029.5,045.5,0.253,762.3,01.16,0.508
2016-01-11 02:31:00,1822E-3,5C000400,-0724,0834,12230,029.5,045.5,0.253,762.3,01.16,0.508
2016-01-11 02:32:00,1871E-3,5C000400,-0724,0833,12205,029.5,045.4,0.253,762.4,01.16,0.508
2016-01-11 02:33:00,1974E-3,5C000400,-0724,0833,12158,029.5,045.5,0.253,762.4,01.16,0.508
2016-01-11 02:34:00,1810E-3,5C000400,-0724,0834,12179,029.5,045.5,0.253,762.4,01.16,0.508
2016-01-11 02:35:00,1816E-3,5C000400,-0724,0834,12152,029.5,045.5,0.253,762.4,01.16,0.508
2016-01-11 02:36:00,1877E-3,5C000400,-0724,0834,12104,029.5,045.5,0.253,762.4,01.16,0.508
2016-01-11 02:37:00,1888E-3,5C000400,-0724,0833,12003,029.5,045.5,0.253,762.4,01.16,0.508
2016-01-11 02:38:00,1901E-3,5C000400,-0724,0834,12149,029.5,045.5,0.253,762.3,01.16,0.508
2016-01-11 02:39:00,1860E-3,5C000400,-0724,0833,12138,029.5,045.5,0.253,762.4,01.16,0.508
2016-01-11 02:40:00,1836E-3,5C000400,-0724,0833,12142,029.5,045.5,0.253,762.3,01.16,0.508
2016-01-11 02:41:00,1955E-3,5C000400,-0724,0833,11966,029.5,045.5,0.253,762.4,01.16,0.508
2016-01-11 02:42:00,1892E-3,5C000400,-0724,0834,12157,029.5,045.5,0.254,762.3,01.16,0.508
2016-01-11 02:43:00,1906E-3,5C000400,-0724,0834,12125,029.5,045.5,0.253,762.3,01.16,0.508
2016-01-11 02:44:00,1777E-3,5C000400,-0724,0834,12070,029.5,045.5,0.253,762.3,01.16,0.508
2016-01-11 02:45:00,1930E-3,5C000400,-0724,0834,11160,029.5,045.5,0.253,762.3,01.16,0.508
2016-01-11 02:46:00,1956E-3,5C000400,-0724,0834,12164,029.5,045.5,0.253,762.3,01.16,0.508
2016-01-11 02:47:00,1983E-3,5C000400,-0724,0834,12141,029.5,045.5,0.253,762.4,01.16,0.508
2016-01-11 02:48:00,1939E-3,5C000400,-0724,0834,12067,029.5,045.5,0.253,762.4,01.16,0.508
2016-01-11 02:49:00,1851E-3,5C000400,-0724,0833,12141,029.5,045.5,0.253,762.4,01.16,0.508
2016-01-11 02:50:00,1828E-3,5C000400,-0724,0833,12131,029.6,045.5,0.253,762.4,01.16,0.508
2016-01-11 02:51:00,1890E-3,5C000400,-0724,0834,12109,029.6,045.5,0.253,762.4,01.16,0.508
2016-01-11 02:52:00,1825E-3,5C000400,-0724,0834,12173,029.6,045.5,0.253,762.3,01.16,0.508
2016-01-11 02:53:00,2068E-3,5C000400,-0724,0834,12196,029.6,045.5,0.253,762.3,01.16,0.508
2016-01-11 02:54:00,1958E-3,5C000400,-0724,0834,12293,029.6,045.5,0.253,762.3,01.16,0.508
2016-01-11 02:55:00,1794E-3,5C000400,-0724,0834,12247,029.6,045.5,0.253,762.3,01.16,0.508
2016-01-11 02:56:00,1869E-3,5C000400,-0724,0833,12080,029.6,045.5,0.253,762.3,01.16,0.508
2016-01-11 02:57:00,1963E-3,5C000400,-0724,0834,12196,029.6,045.5,0.253,762.3,01.16,0.508
2016-01-11 02:58:00,1876E-3,5C000400,-0724,0834,12166,029.6,045.5,0.253,762.3,01.16,0.508
2016-01-11 02:59:00,1874E-3,5C000400,-0724,0834,12212,029.6,045.5,0.253,762.3,01.16,0.508
2016-01-11 03:00:00,1870E-3,5C000400,-0724,0834,12080,029.6,045.5,0.253,762.3,01.16,0.508
2016-01-11 03:01:00,1896E-3,5C000400,-0724,0834,12204,029.6,045.5,0.253,762.3,01.16,0.508
2016-01-11 03:02:00,1916E-3,5C000400,-0724,0834,12133,029.6,045.5,0.253,762.3,01.16,0.508
2016-01-11 03:03:00,1813E-3,5C000400,-0724,0834,12063,029.6,045.5,0.253,762.2,01.16,0.508
2016-01-11 03:04:00,2028E-3,5C000400,-0724,0834,12210,029.6,045.5,0.253,762.2,01.16,0.508
2016-01-11 03:05:00,1885E-3,5C000400,-0724,0834,12158,029.6,045.5,0.253,762.3,01.16,0.508
2016-01-11 03:06:00,1929E-3,5C000400,-0724,0834,12138,029.6,045.5,0.253,762.3,01.16,0.508
2016-01-11 03:07:00,1855E-3,5C000400,-0724,0833,12142,029.6,045.5,0.253,762.3,01.16,0.508
2016-01-11 03:08:00,1859E-3,5C000400,-0724,0834,12168,029.6,045.5,0.253,762.2,01.16,0.508
2016-01-11 03:09:00,1976E-3,5C000400,-0724,0834,12088,029.6,045.5,0.253,762.2,01.16,0.508
2016-01-11 03:10:00,1896E-3,5C000400,-0724,0833,12136,029.6,045.5,0.253,762.3,01.16,0.508
2016-01-11 03:11:00,1951E-3,5C000400,-0724,0834,12133,029.6,045.5,0.253,762.2,01.16,0.508
2016-01-11 03:12:00,1923E-3,5C000400,-0724,0834,12266,029.6,045.4,0.253,762.3,01.16,0.508
2016-01-11 03:13:00,1919E-3,5C000400,-0724,0833,12181,029.6,045.5,0.253,762.2,01.16,0.508
2016-01-11 03:14:00,1904E-3,5C000400,-0724,0834,12048,029.6,045.5,0.253,762.2,01.16,0.508
2016-01-11 03:15:00,1978E-3,5C000400,-0724,0834,12107,029.6,045.5,0.253,762.2,01.16,0.508
2016-01-11 03:16:00,1845E-3,5C000400,-0724,0833,12120,029.6,045.5,0.254,762.2,01.16,0.508
2016-01-11 03:17:00,1923E-3,5C000400,-0724,0835,12002,029.6,045.5,0.253,762.1,01.16,0.508
2016-01-11 03:18:00,1900E-3,5C000400,-0724,0834,11964,029.6,045.5,0.253,762.2,01.16,0.508
2016-01-11 03:19:00,1906E-3,5C000400,-0724,0834,12128,029.6,045.5,0.253,762.2,01.16,0.508
2016-01-11 03:20:00,1867E-3,5C000400,-0724,0835,12289,029.7,045.5,0.252,762.2,01.16,0.508
2016-01-11 03:21:00,1950E-3,5C000400,-0724,0833,12188,029.7,045.5,0.253,762.2,01.16,0.508
2016-01-11 03:22:00,1867E-3,5C000400,-0724,0833,12201,029.6,045.5,0.253,762.2,01.16,0.508
2016-01-11 03:23:00,1689E-3,5C000400,-0724,0834,12131,029.6,045.5,0.253,762.2,01.16,0.508
2016-01-11 03:24:00,1987E-3,5C000400,-0724,0834,12229,029.7,045.5,0.253,762.2,01.16,0.508
2016-01-11 03:25:00,1964E-3,5C000400,-0724,0834,12206,029.7,045.5,0.253,762.2,01.16,0.508
2016-01-11 03:26:00,1907E-3,5C000400,-0724,0835,12019,029.7,045.5,0.253,762.3,01.16,0.508
2016-01-11 03:27:00,2025E-3,5C000400,-0724,0833,12164,029.6,045.5,0.252,762.3,01.16,0.508
2016-01-11 03:28:00,1778E-3,5C000400,-0724,0834,12107,029.7,045.5,0.253,762.3,01.16,0.508
2016-01-11 03:29:00,1964E-3,5C000400,-0724,0833,12101,029.7,045.5,0.253,762.3,01.16,0.508
2016-01-11 03:30:00,1934E-3,5C000400,-0724,0834,12129,029.7,045.5,0.253,762.3,01.16,0.508
2016-01-11 03:31:00,1995E-3,5C000400,-0724,0834,12193,029.7,045.5,0.253,762.2,01.16,0.508
2016-01-11 03:32:00,1837E-3,5C000400,-0724,0834,12076,029.7,045.5,0.253,762.3,01.16,0.508
2016-01-11 03:33:00,1804E-3,5C000400,-0724,0834,12050,029.7,045.5,0.253,762.3,01.16,0.508
2016-01-11 03:34:00,1969E-3,5C000400,-0724,0833,12089,029.7,045.5,0.252,762.3,01.16,0.508
2016-01-11 03:35:00,1833E-3,5C000400,-0724,0835,12153,029.7,045.5,0.253,762.3,01.16,0.508
2016-01-11 03:36:00,1793E-3,5C000400,-0724,0834,12220,029.7,045.5,0.253,762.3,01.16,0.508
2016-01-11 03:37:00,1809E-3,5C000400,-0724,0834,12169,029.7,045.5,0.253,762.3,01.16,0.508
2016-01-11 03:38:00,1751E-3,5C000400,-0724,0834,12116,029.7,045.5,0.253,762.3,01.16,0.508
2016-01-11 03:39:00,1975E-3,5C000400,-0724,0834,12158,029.7,045.5,0.253,762.3,01.16,0.508
2016-01-11 03:40:00,1934E-3,5C000400,-0724,0834,12093,029.7,045.5,0.253,762.3,01.16,0.508
2016-01-11 03:41:00,1877E-3,5C000400,-0724,0833,12080,029.7,045.5,0.252,762.3,01.16,0.508
2016-01-11 03:42:00,1846E-3,5C000400,-0724,0834,12114,029.7,045.5,0.253,762.3,01.16,0.508
2016-01-11 03:43:00,2004E-3,5C000400,-0724,0834,12201,029.7,045.5,0.253,762.3,01.16,0.508
2016-01-11 03:44:00,1797E-3,5C000400,-0724,0834,12206,029.7,045.5,0.253,762.3,01.16,0.508
2016-01-11 03:45:00,2013E-3,5C000400,-0724,0834,12232,029.7,045.5,0.253,762.3,01.16,0.508
2016-01-11 03:46:00,1993E-3,5C000400,-0724,0835,12055,029.7,045.5,0.253,762.3,01.16,0.508
2016-01-11 03:47:00,1990E-3,5C000400,-0724,0834,12037,029.7,045.5,0.253,762.3,01.16,0.508
2016-01-11 03:48:00,1869E-3,5C000400,-0724,0834,12201,029.7,045.5,0.252,762.3,01.16,0.508
2016-01-11 03:49:00,2001E-3,5C000400,-0724,0833,12105,029.7,045.5,0.253,762.3,01.16,0.508
2016-01-11 03:50:00,1859E-3,5C000400,-0724,0834,12226,029.7,045.5,0.253,762.3,01.16,0.508
2016-01-11 03:51:00,1933E-3,5C000400,-0724,0834,12218,029.7,045.5,0.253,762.3,01.16,0.508
2016-01-11 03:52:00,2144E-3,5C000400,-0724,0834,12274,029.7,045.5,0.253,762.3,01.16,0.508
2016-01-11 03:53:00,1892E-3,5C000400,-0724,0834,12092,029.8,045.5,0.253,762.3,01.16,0.508
2016-01-11 03:54:00,1924E-3,5C000400,-0724,0834,11984,029.8,045.5,0.253,762.3,01.16,0.508
2016-01-11 03:55:00,1907E-3,5C000400,-0724,0834,12236,029.8,045.5,0.252,762.4,01.16,0.508
2016-01-11 03:56:00,1836E-3,5C000400,-0724,0834,12081,029.7,045.5,0.253,762.4,01.16,0.508
2016-01-11 03:57:00,1911E-3,5C000400,-0724,0834,12170,029.8,045.5,0.252,762.4,01.16,0.508
2016-01-11 03:58:00,1993E-3,5C000400,-0724,0834,12201,029.8,045.5,0.253,762.4,01.16,0.508
2016-01-11 03:59:00,1841E-3,5C000400,-0724,0833,12180,029.8,045.5,0.253,762.4,01.16,0.508
2016-01-11 04:00:00,1916E-3,5C000400,-0724,0834,11960,029.8,045.5,0.252,762.4,01.16,0.508
2016-01-11 04:01:00,1709E-3,5C000400,-0724,0833,12024,029.8,045.5,0.253,762.4,01.16,0.508
2016-01-11 04:02:00,1917E-3,5C000400,-0724,0835,12268,029.8,045.5,0.252,762.4,01.16,0.508
2016-01-11 04:03:00,1925E-3,5C000400,-0724,0833,11958,029.8,045.5,0.253,762.4,01.16,0.508
2016-01-11 04:04:00,1843E-3,5C000400,-0724,0835,12104,029.8,045.5,0.252,762.4,01.16,0.508
2016-01-11 04:05:00,1926E-3,5C000400,-0724,0834,12082,029.8,045.5,0.253,762.4,01.16,0.508
2016-01-11 04:06:00,1975E-3,5C000400,-0724,0834,12151,029.8,045.5,0.253,762.4,01.16,0.508
2016-01-11 04:07:00,2017E-3,5C000400,-0724,0834,12113,029.8,045.5,0.253,762.3,01.16,0.508
2016-01-11 04:08:00,1931E-3,5C000400,-0724,0833,12125,029.8,045.5,0.253,762.4,01.16,0.508
2016-01-11 04:09:00,2010E-3,5C000400,-0724,0834,12052,029.8,045.5,0.252,762.4,01.16,0.508
2016-01-11 04:10:00,1988E-3,5C000400,-0724,0834,12217,029.8,045.4,0.253,762.3,01.16,0.508
2016-01-11 04:11:00,1997E-3,5C000400,-0724,0834,12210,029.8,045.5,0.252,762.3,01.16,0.508
2016-01-11 04:12:00,2032E-3,5C000400,-0724,0834,12219,029.8,045.5,0.253,762.3,01.16,0.508
2016-01-11 04:13:00,1820E-3,5C000400,-0724,0834,12168,029.8,045.5,0.253,762.3,01.16,0.508
2016-01-11 04:14:00,2011E-3,5C000400,-0724,0834,12128,029.8,045.5,0.253,762.3,01.16,0.508
2016-01-11 04:15:00,2030E-3,5C000400,-0724,0834,12168,029.8,045.5,0.253,762.3,01.16,0.508
2016-01-11 04:16:00,2038E-3,5C000400,-0724,0834,12112,029.8,045.5,0.253,762.3,01.16,0.508
2016-01-11 04:17:00,2029E-3,5C000400,-0724,0834,12241,029.8,045.5,0.253,762.3,01.16,0.508
2016-01-11 04:18:00,1920E-3,5C000400,-0724,0834,11980,029.8,045.5,0.253,762.3,01.16,0.508
2016-01-11 04:19:00,2014E-3,5C000400,-0724,0834,12046,029.8,045.5,0.252,762.3,01.16,0.508
2016-01-11 04:20:00,1993E-3,5C000400,-0724,0834,12054,029.8,045.5,0.253,762.3,01.16,0.508